Location: Bennemühlen
(52.5740°N, 9.7135°E)
Time: 12:08:05
(UTC+00:00)

A-11 Canister half - Pass Details

Date: 23 February 2026
Orbit: 1513 x 1686 km, 47.2° (Epoch: 17 March)

Event Time Altitude Azimuth Distance (km) Brightness Sun altitude
Rises 16:32:12 0° 175° (S) 4,921 11.8 1.6°
Reaches altitude 10° 16:37:30 10° 152° (SSE) 3,945 11.1 0.8°
Maximum altitude 16:42:05 14° 125° (SE) 3,622 10.6 0.2°
Drops below altitude 10° 16:46:38 10° 97° (E) 3,942 10.6 -0.5°
Enters shadow 16:51:13 - 78° (ENE) 4,771 10.9 -1.2°
Sets 16:51:52 0° 75° (ENE) 4,915 - -1.3°
